EW6703 Weather Reports


time (UTC)temp
C
wind
direction
speed
KPH
gust
KPH
rain 1hr
cm
rain 24hr
cm
rain mn
cm
humidity
%
barometer
mb
20260506202208 18 266 4.8 16.1 0.00 0.46 0.46 86 995.0
20260506202156 18 241 3.2 12.9 0.00 0.46 0.46 86 995.0
20260506201156 17 245 4.8 16.1 0.00 0.46 0.46 85 995.2
20260506200650 17 245 4.8 16.1 0.00 0.46 0.46 85 995.2
20260506200143 18 218 4.8 14.5 0.00 0.46 0.46 85 995.1
20260506195906 18 286 4.8 17.7 0.00 0.46 0.46 86 995.3
20260506195146 17 228 4.8 17.7 0.00 0.46 0.46 86 995.3
20260506194643 17 226 4.8 17.7 0.00 0.46 0.46 87 995.3
20260506194141 17 198 4.8 17.7 0.00 0.46 0.46 87 995.4
20260506194131 17 239 6.4 16.1 0.00 0.46 0.46 87 995.4
20260506193141 17 217 4.8 16.1 0.00 0.46 0.46 87 995.4
20260506192911 17 220 4.8 14.5 0.00 0.46 0.46 88 995.4
20260506192404 17 198 4.8 14.5 0.00 0.46 0.46 88 995.5
20260506191638 17 223 6.4 19.3 0.00 0.46 0.46 88 995.5
20260506191140 17 238 6.4 19.3 0.00 0.46 0.46 88 995.7
20260506190637 17 214 4.8 17.7 0.00 0.46 0.46 88 995.6
20260506190138 17 218 4.8 17.7 0.00 0.46 0.46 89 995.7
20260506185901 16 240 4.8 12.9 0.00 0.46 0.46 89 995.7
20260506185137 16 198 6.4 19.3 0.00 0.46 0.46 89 995.8
20260506184909 16 230 6.4 19.3 0.00 0.46 0.46 89 995.8
20260506184137 16 241 6.4 14.5 0.00 0.46 0.46 89 995.9
20260506183638 16 227 6.4 17.7 0.00 0.46 0.46 89 996.0
20260506183354 16 240 4.8 17.7 0.00 0.46 0.46 89 996.0
20260506182634 16 246 6.4 19.3 0.00 0.46 0.46 89 996.0
20260506182133 16 211 8.0 24.1 0.00 0.46 0.46 89 996.0
20260506181632 16 221 8.0 24.1 0.00 0.46 0.46 89 996.1
20260506181133 16 288 6.4 19.3 0.00 0.46 0.46 89 996.0
20260506180632 16 269 4.8 17.7 0.00 0.46 0.46 89 996.0
20260506180355 16 225 6.4 19.3 0.00 0.46 0.46 89 996.0
20260506175635 16 230 4.8 19.3 0.00 0.46 0.46 89 996.0
20260506175134 16 146 4.8 19.3 0.00 0.46 0.46 89 996.1
20260506174631 16 227 6.4 19.3 0.00 0.46 0.46 89 996.2
20260506174353 16 228 4.8 14.5 0.00 0.46 0.46 89 996.2
20260506173631 16 218 4.8 14.5 0.00 0.46 0.46 90 996.2
20260506173128 16 227 4.8 14.5 0.00 0.46 0.46 90 996.1
20260506172629 16 250 4.8 12.9 0.00 0.46 0.46 90 996.1
20260506172129 16 233 6.4 22.5 0.03 0.46 0.46 90 996.3
20260506171631 16 240 8.0 22.5 0.03 0.46 0.46 89 996.4
20260506171131 16 233 6.4 19.3 0.03 0.46 0.46 90 996.5
20260506170631 16 227 4.8 16.1 0.03 0.46 0.46 90 996.3
20260506170351 17 221 4.8 16.1 0.05 0.46 0.46 90 996.4
20260506165855 17 153 6.4 17.7 0.08 0.46 0.46 90 996.3
20260506165128 17 233 4.8 17.7 0.10 0.46 0.46 90 996.3
20260506164630 17 213 4.8 12.9 0.15 0.46 0.46 90 996.3
20260506164128 17 227 4.8 11.3 0.18 0.46 0.46 90 996.4
20260506164119 16 207 4.8 9.7 0.23 0.46 0.46 91 996.3
20260506163129 16 126 3.2 8.0 0.25 0.46 0.46 90 996.6
20260506162627 16 194 3.2 9.7 0.28 0.46 0.46 90 996.3
20260506162351 16 229 1.6 9.7 0.28 0.43 0.46 90 996.4
20260506161621 16 141 1.6 8.0 0.33 0.43 0.43 90 996.7
20260506161115 16 229 1.6 8.0 0.36 0.43 0.43 90 997.0
20260506160608 16 210 1.6 4.8 0.36 0.43 0.43 89 997.3
20260506160105 16 173 1.6 9.7 0.36 0.41 0.41 89 997.5
20260506155821 16 221 1.6 9.7 0.33 0.38 0.38 88 997.6
20260506155052 16 237 1.6 8.0 0.30 0.36 0.36 88 997.7
20260506154552 16 243 1.6 6.4 0.28 0.30 0.30 88 997.7
20260506154055 16 242 1.6 8.0 0.23 0.25 0.28 87 997.6
20260506153552 17 226 1.6 8.0 0.23 0.23 0.23 87 997.6
20260506153051 17 283 1.6 4.8 0.20 0.20 0.20 86 997.6
20260506152548 17 193 3.2 9.7 0.18 0.18 0.18 85 997.5
20260506152047 17 217 3.2 9.7 0.13 0.13 0.15 85 997.4
20260506151546 17 262 3.2 11.3 0.10 0.10 0.10 84 997.5
20260506151046 17 249 3.2 11.3 0.08 0.08 0.08 84 997.6
20260506150547 17 230 3.2 14.5 0.08 0.08 0.08 84 997.6
20260506150048 17 240 3.2 14.5 0.05 0.05 0.05 83 997.5
20260506145544 17 219 3.2 9.7 0.05 0.05 0.05 83 997.5
20260506145314 18 246 1.6 4.8 0.05 0.05 0.05 82 997.4
20260506144545 18 311 1.6 8.0 0.03 0.03 0.05 81 997.3
20260506144046 18 228 3.2 8.0 0.03 0.03 0.03 80 997.4
20260506143543 18 247 3.2 12.9 0.00 0.00 0.03 79 997.6
20260506143042 18 269 4.8 12.9 0.00 0.00 0.00 78 997.7
20260506142542 18 232 4.8 14.5 0.00 0.00 0.00 76 997.6
20260506142259 18 246 6.4 20.9 0.00 0.00 0.00 75 997.6
20260506141528 18 213 6.4 20.9 0.00 0.00 0.00 74 997.6
20260506141511 19 213 6.4 20.9 0.00 0.00 0.00 73 997.6
20260506140517 19 245 6.4 24.1 0.00 0.00 0.00 73 997.4
20260506140012 19 221 4.8 24.1 0.00 0.00 0.00 73 997.4
20260506135722 19 246 4.8 11.3 0.00 0.00 0.00 74 997.2
20260506134959 19 211 4.8 20.9 0.00 0.00 0.00 74 997.2
20260506134452 19 269 6.4 20.9 0.00 0.00 0.00 75 997.2
20260506134204 18 247 8.0 27.4 0.00 0.00 0.00 75 997.3
20260506133710 18 231 8.0 27.4 0.00 0.00 0.00 74 997.3
20260506133201 18 238 6.4 16.1 0.00 0.00 0.00 74 997.4
20260506132907 18 254 4.8 16.1 0.00 0.00 0.00 74 997.4
20260506132142 18 215 6.4 16.1 0.00 0.00 0.00 74 997.3
20260506131418 18 200 6.4 16.1 0.00 0.00 0.00 74 997.4
20260506130912 18 246 4.8 14.5 0.00 0.00 0.00 74 997.4
20260506130628 18 188 6.4 12.9 0.00 0.00 0.00 74 997.5
20260506125859 18 242 8.0 17.7 0.00 0.00 0.00 74 997.7
20260506125614 18 240 6.4 17.7 0.00 0.00 0.00 74 997.7
20260506124847 18 225 6.4 19.3 0.00 0.00 0.00 74 997.7
20260506124342 18 94 8.0 20.9 0.00 0.00 0.00 74 997.5
20260506123835 18 194 6.4 20.9 0.00 0.00 0.00 76 997.4
20260506123558 18 225 4.8 16.1 0.00 0.00 0.00 76 997.4
20260506122823 18 229 4.8 16.1 0.00 0.00 0.00 76 997.4
20260506122805 18 252 3.2 12.9 0.00 0.00 0.00 77 997.4
20260506122038 18 215 3.2 12.9 0.00 0.00 0.00 77 997.4
20260506121304 18 207 3.2 11.3 0.00 0.00 0.00 77 997.4
20260506120759 18 215 1.6 6.4 0.00 0.00 0.00 77 997.3
20260506120254 18 217 3.2 14.5 0.00 0.00 0.00 78 997.2
20260506115746 18 196 3.2 14.5 0.00 0.00 0.00 78 997.3
20260506115241 17 139 3.2 8.0 0.00 0.00 0.00 78 997.3
20260506114735 17 223 3.2 8.0 0.00 0.00 0.00 78 997.3
20260506114452 17 244 3.2 12.9 0.00 0.00 0.00 78 997.1
20260506113724 17 194 3.2 12.9 0.00 0.00 0.00 78 997.3
20260506113704 17 150 3.2 11.3 0.00 0.00 0.00 78 997.3
20260506112712 17 115 3.2 6.4 0.00 0.00 0.00 78 997.2
20260506112205 17 242 3.2 11.3 0.00 0.00 0.00 78 997.2
20260506111659 17 169 3.2 12.9 0.00 0.00 0.00 78 997.3
20260506111153 17 211 3.2 12.9 0.00 0.00 0.00 78 997.2
20260506110647 17 153 4.8 11.3 0.00 0.00 0.00 78 997.3
20260506110142 17 219 3.2 14.5 0.00 0.00 0.00 79 997.3
20260506105858 17 223 3.2 14.5 0.00 0.00 0.00 79 997.2
20260506105137 17 142 3.2 11.3 0.00 0.00 0.00 79 997.3
20260506104638 17 230 3.2 11.3 0.00 0.00 0.00 79 997.3
20260506104139 17 251 3.2 8.0 0.00 0.00 0.00 79 997.2
20260506103638 17 155 3.2 12.9 0.00 0.00 0.00 79 997.2
20260506103137 17 76 1.6 12.9 0.00 0.00 0.00 79 997.2
20260506102636 17 227 1.6 19.3 0.00 0.00 0.00 79 997.2
20260506102135 17 160 1.6 19.3 0.00 0.00 0.00 79 997.1
20260506101634 17 188 1.6 9.7 0.00 0.00 0.00 79 997.1
20260506101136 17 229 3.2 8.0 0.00 0.00 0.00 79 997.1
20260506100633 17 217 3.2 14.5 0.00 0.00 0.00 78 997.0
20260506100133 17 134 3.2 14.5 0.00 0.00 0.00 78 997.1
20260506095631 17 238 3.2 11.3 0.00 0.00 0.00 78 997.2
20260506095130 17 165 4.8 12.9 0.00 0.00 0.00 78 997.1
20260506094854 17 84 3.2 12.9 0.00 0.00 0.00 78 997.1
20260506094132 17 308 3.2 9.7 0.00 0.00 0.00 78 997.1
20260506093629 17 217 3.2 9.7 0.00 0.00 0.00 77 997.1
20260506093355 18 213 1.6 6.4 0.00 0.00 0.00 77 997.1
20260506092630 18 242 1.6 8.0 0.00 0.00 0.00 77 997.0
20260506092128 18 247 1.6 8.0 0.00 0.00 0.00 77 996.9
20260506091628 18 178 3.2 19.3 0.00 0.00 0.00 77 997.0
20260506091128 18 136 3.2 19.3 0.00 0.00 0.00 77 997.0
20260506090628 18 202 3.2 9.7 0.00 0.00 0.00 77 997.0
20260506090129 18 242 3.2 12.9 0.00 0.00 0.00 77 997.0
20260506085628 18 190 3.2 12.9 0.00 0.00 0.00 77 997.1
20260506085127 18 85 3.2 9.7 0.00 0.00 0.00 77 997.1
20260506084629 18 273 3.2 8.0 0.00 0.00 0.00 77 997.1
20260506084124 18 194 3.2 8.0 0.00 0.00 0.00 77 997.1
20260506083845 18 150 3.2 9.7 0.00 0.00 0.00 77 997.1
20260506083123 18 219 3.2 12.9 0.00 0.00 0.00 77 997.2
20260506082626 18 167 3.2 12.9 0.00 0.00 0.00 77 997.1
20260506082125 18 169 1.6 6.4 0.00 0.00 0.00 77 997.1
20260506081625 18 149 3.2 14.5 0.00 0.00 0.00 77 997.1
20260506081125 18 168 1.6 14.5 0.00 0.00 0.00 77 997.2
20260506080625 18 215 1.6 6.4 0.00 0.00 0.00 76 997.2
20260506080125 18 187 1.6 6.4 0.00 0.00 0.00 76 997.3
20260506073121 18 136 1.6 9.7 0.00 0.00 0.00 75 997.4
20260506072623 18 221 1.6 9.7 0.00 0.00 0.00 74 997.4
20260506072123 18 134 1.6 9.7 0.00 0.00 0.00 74 997.4
20260506071622 18 164 1.6 6.4 0.00 0.00 0.00 74 997.4
20260506071116 18 18 3.2 6.4 0.00 0.00 0.00 73 997.4
20260506070609 18 135 3.2 11.3 0.00 0.00 0.00 73 997.5
20260506070104 18 154 3.2 11.3 0.00 0.00 0.00 73 997.6
20260506062016 18 68 1.6 4.8 0.00 0.00 0.00 72 997.9
20260506061511 18 215 1.6 6.4 0.00 0.00 0.00 72 997.9
20260506061003 18 238 1.6 6.4 0.00 0.00 0.00 71 997.9
20260506060457 18 207 1.6 11.3 0.00 0.00 0.00 71 997.9
20260506051358 18 88 1.6 6.4 0.00 0.00 0.00 69 998.3
20260506050852 19 178 1.6 11.3 0.00 0.00 0.00 69 998.3
20260506050345 19 103 1.6 11.3 0.00 0.00 0.00 68 998.2
20260506044828 19 136 1.6 6.4 0.00 0.00 0.00 67 998.3
20260506044322 19 218 1.6 8.0 0.00 0.00 0.00 67 998.4
20260506043816 19 221 3.2 8.0 0.00 0.00 0.00 67 998.4
20260506043310 19 244 1.6 6.4 0.00 0.00 0.00 67 998.4
20260506042804 19 234 3.2 14.5 0.00 0.00 0.00 67 998.3
20260506042305 19 280 3.2 14.5 0.00 0.00 0.00 67 998.3
20260506042028 19 163 1.6 9.7 0.00 0.00 0.00 67 998.3
20260506041301 18 140 1.6 11.3 0.00 0.00 0.00 67 998.3
20260506041023 19 153 3.2 11.3 0.00 0.00 0.00 67 998.3
20260506040300 19 223 1.6 11.3 0.00 0.00 0.00 66 998.3
20260506035800 19 232 1.6 11.3 0.00 0.00 0.00 66 998.3
20260506035300 19 263 1.6 6.4 0.00 0.00 0.00 66 998.3
20260506034800 19 145 1.6 6.4 0.00 0.00 0.00 65 998.3
20260506034520 19 170 1.6 4.8 0.00 0.00 0.00 65 998.2
20260506033759 19 175 1.6 11.3 0.00 0.00 0.00 65 998.2
20260506033301 19 186 1.6 11.3 0.00 0.00 0.00 64 998.1
20260506033020 20 237 1.6 6.4 0.00 0.00 0.00 64 998.2
20260506032301 20 180 1.6 6.4 0.00 0.00 0.00 63 998.2
20260506031759 20 217 1.6 6.4 0.00 0.00 0.00 63 998.2
20260506031302 20 215 1.6 6.4 0.00 0.00 0.00 62 998.2
20260506030800 20 229 3.2 9.7 0.00 0.00 0.00 62 998.3
20260506030259 20 106 3.2 9.7 0.00 0.00 0.00 61 998.2
20260506025759 20 192 1.6 11.3 0.00 0.00 0.00 60 998.2
20260506025300 20 113 1.6 11.3 0.00 0.00 0.00 60 998.2
20260506024759 20 142 3.2 11.3 0.00 0.00 0.00 59 998.3
20260506024253 21 148 1.6 11.3 0.00 0.00 0.00 58 998.3
20260506023747 21 123 1.6 9.7 0.00 0.00 0.00 57 998.3
20260506023241 21 215 1.6 9.7 0.00 0.00 0.00 56 998.3
20260506022955 21 109 1.6 9.7 0.00 0.00 0.00 55 998.3
20260506022230 21 196 1.6 6.4 0.00 0.00 0.00 54 998.3
20260506021725 21 137 1.6 6.4 0.00 0.00 0.00 53 998.2
20260506021218 21 128 1.6 4.8 0.00 0.00 0.00 53 998.2
20260506020711 21 180 3.2 11.3 0.00 0.00 0.00 53 998.2
20260506020428 22 149 4.8 14.5 0.00 0.00 0.00 52 998.2
20260506015700 22 237 3.2 14.5 0.00 0.00 0.00 52 998.2
20260506015154 22 190 3.2 11.3 0.00 0.00 0.00 52 998.1
20260506014648 22 219 1.6 11.3 0.00 0.00 0.00 51 998.1
20260506014142 22 146 3.2 8.0 0.00 0.00 0.00 50 998.0
20260506013637 22 105 3.2 8.0 0.00 0.00 0.00 50 997.9
20260506013350 22 124 3.2 14.5 0.00 0.00 0.00 50 997.9
20260506012625 22 109 3.2 14.5 0.00 0.00 0.00 49 997.8
20260506012343 22 259 3.2 12.9 0.00 0.00 0.00 49 997.8
20260506011611 22 218 4.8 19.3 0.00 0.00 0.00 49 997.7
20260506011107 22 234 4.8 19.3 0.00 0.00 0.00 48 997.7
20260506010559 22 221 3.2 9.7 0.00 0.00 0.00 48 997.7
20260506010055 22 163 3.2 14.5 0.00 0.00 0.00 47 997.6
20260506005548 22 221 3.2 14.5 0.00 0.00 0.00 47 997.5
20260506005041 23 231 3.2 9.7 0.00 0.00 0.00 47 997.6
20260506004536 23 169 4.8 19.3 0.00 0.00 0.00 47 997.5
20260506004030 23 211 4.8 19.3 0.00 0.00 0.00 46 997.5
20260506003611 23 215 4.8 14.5 0.00 0.00 0.00 47 997.4
20260506002733 23 209 3.2 9.7 0.00 0.00 0.00 47 997.3
20260506002230 23 238 3.2 9.7 0.00 0.00 0.00 47 997.2
20260506001459 23 229 3.2 9.7 0.00 0.00 0.00 47 997.2
20260506000955 23 225 3.2 9.7 0.00 0.00 0.00 47 997.2
20260506000448 23 132 3.2 6.4 0.00 0.00 0.00 47 997.1
20260505235942 23 146 3.2 12.9 0.00 0.00 0.00 47 997.0
20260505235436 23 116 1.6 12.9 0.00 0.00 0.00 47 997.0
20260505234930 24 124 1.6 6.4 0.00 0.00 0.00 47 996.9
20260505234424 24 221 3.2 11.3 0.00 0.00 0.00 46 996.9
20260505233918 24 196 1.6 11.3 0.00 0.00 0.00 45 996.9
20260505233413 24 273 1.6 6.4 0.00 0.00 0.00 45 996.9
20260505232905 25 210 1.6 9.7 0.00 0.00 0.00 44 996.8
20260505232400 25 211 1.6 9.7 0.00 0.00 0.00 43 996.8
20260505231854 25 229 3.2 16.1 0.00 0.00 0.00 42 996.8
20260505231349 25 213 3.2 16.1 0.00 0.00 0.00 41 996.7
20260505230842 25 219 4.8 17.7 0.00 0.00 0.00 41 996.7
20260505230557 25 154 4.8 17.7 0.00 0.00 0.00 40 996.6
20260505225830 25 137 6.4 17.7 0.00 0.00 0.00 40 996.7
20260505225324 25 224 6.4 24.1 0.00 0.00 0.00 39 996.6
20260505225035 25 237 6.4 24.1 0.00 0.00 0.00 38 996.7
20260505224313 26 223 6.4 20.9 0.00 0.00 0.00 38 996.7
20260505223805 26 200 6.4 30.6 0.00 0.00 0.00 38 996.6
20260505223259 26 278 6.4 30.6 0.00 0.00 0.00 37 996.5
20260505222754 26 237 6.4 16.1 0.00 0.00 0.00 37 996.5
20260505222248 26 190 8.0 16.1 0.00 0.00 0.00 37 996.6
20260505221742 26 214 8.0 22.5 0.00 0.00 0.00 37 996.5
20260505221237 26 260 8.0 22.5 0.00 0.00 0.00 37 996.5
20260505220731 26 234 8.0 17.7 0.00 0.00 0.00 37 996.5
20260505220225 26 219 9.7 24.1 0.00 0.00 0.00 36 996.4
20260505215938 26 205 9.7 24.1 0.00 0.00 0.00 36 996.4
20260505215212 26 227 9.7 24.1 0.00 0.00 0.00 36 996.4
20260505214705 26 235 9.7 24.1 0.00 0.00 0.00 36 996.5
20260505214200 26 243 9.7 24.1 0.00 0.00 0.00 35 996.4
20260505213654 26 240 9.7 29.0 0.00 0.00 0.00 35 996.4
20260505213149 26 266 11.3 29.0 0.00 0.00 0.00 34 996.2
20260505212642 26 213 11.3 29.0 0.00 0.00 0.00 35 996.3
20260505212136 27 243 11.3 29.0 0.00 0.00 0.00 34 996.4
20260505211630 27 232 9.7 24.1 0.00 0.00 0.00 33 996.4
20260505211345 27 219 9.7 24.1 0.00 0.00 0.00 35 996.2
20260505210618 27 247 11.3 29.0 0.00 0.00 0.00 34 996.3
20260505210112 27 209 9.7 29.0 0.00 0.00 0.00 33 996.5
20260505205100 27 211 8.0 19.3 0.00 0.00 0.00 34 996.3
20260505204811 27 254 8.0 25.7 0.00 0.00 0.00 34 996.3
20260505204055 27 212 12.9 30.6 0.00 0.00 0.00 34 996.2
20260505203555 27 138 11.3 30.6 0.00 0.00 0.00 32 996.3
20260505203053 27 213 9.7 25.7 0.00 0.00 0.00 34 996.3
20260505202553 27 263 9.7 25.7 0.00 0.00 0.00 33 996.3